Hourly Data Report for October 03, 2005

TORONTO CITY
ONTARIO

43°40'00.000" N
79°24'00.000" W
112.50 m
6158355
71508
XTO

Download Data

Hourly Data (October 2005)
Hourly Data Report for October 3, 2005
TIME
LST
Temp Definition
°C
Dew Point Definition
°C
Rel Hum Definition
%
Precip. Amount Definition
mm

Wind Dir Definition
10's deg

Wind Spd Definition
km/h
Visibility Definition
km
Stn Press Definition
kPa
Hmdx Definition


Wind Chill Definition


Weather Definition


00:00 15.7 13.3 86   LegendMM LegendMM   101.24     LegendNANA
01:00 15.4 13.2 87   LegendMM LegendMM   101.22     LegendNANA
02:00 14.9 13.1 89   LegendMM LegendMM   101.19     LegendNANA
03:00 14.8 13.3 91   LegendMM LegendMM   101.23     LegendNANA
04:00 15.0 13.4 90   LegendMM LegendMM   101.22     LegendNANA
05:00 15.4 14.1 92   LegendMM LegendMM   101.21     LegendNANA
06:00 15.4 13.9 91   LegendMM LegendMM   101.28     LegendNANA
07:00 16.0 14.4 90   LegendMM LegendMM   101.29     LegendNANA
08:00 16.7 14.5 87   LegendMM LegendMM   101.29     LegendNANA
09:00 18.6 16.4 87   LegendMM LegendMM   101.26     LegendNANA
10:00 19.0 16.6 86   LegendMM LegendMM   101.29     LegendNANA
11:00 21.5 17.7 79   LegendMM LegendMM   101.27 27   LegendNANA
12:00 23.4 18.8 75   LegendMM LegendMM   101.24 30   LegendNANA
13:00 24.6 18.9 71   LegendMM LegendMM   101.18 31   LegendNANA
14:00 23.7 18.8 74   LegendMM LegendMM   101.14 30   LegendNANA
15:00 23.8 18.8 74   LegendMM LegendMM   101.12 30   LegendNANA
16:00 22.9 18.6 77   LegendMM LegendMM   101.08 29   LegendNANA
17:00 21.0 17.7 81   LegendMM LegendMM   101.08 27   LegendNANA
18:00 20.4 17.6 84   LegendMM LegendMM   101.11 26   LegendNANA
19:00 19.7 17.7 88   LegendMM LegendMM   101.12     LegendNANA
20:00 19.4 17.5 89   LegendMM LegendMM   101.15     LegendNANA
21:00 19.1 17.5 90   LegendMM LegendMM   101.15     LegendNANA
22:00 18.7 17.0 90   LegendMM LegendMM   101.15     LegendNANA
23:00 18.3 17.0 92   LegendMM LegendMM   101.12     LegendNANA

Notes on Data Quality.

Legend

  • E = Estimated
  • M = Missing
  • NA = Not Available*
  • [empty] = Indicates an unobserved value
Date modified: